Year,Month,Day,Hour,Minute,Value (Times are PST for temperature in C)
2018,04,07,00,00,9.80
2018,04,07,00,01,9.80
2018,04,07,00,02,9.80
2018,04,07,00,03,9.80
2018,04,07,00,04,9.80
2018,04,07,00,05,9.80
2018,04,07,00,06,9.80
2018,04,07,00,07,9.80
2018,04,07,00,08,9.80
2018,04,07,00,09,9.80
2018,04,07,00,10,9.80
2018,04,07,00,11,9.80
2018,04,07,00,12,9.80
2018,04,07,00,13,9.80
2018,04,07,00,14,9.80
2018,04,07,00,15,9.80
2018,04,07,00,16,9.80
2018,04,07,00,17,9.80
2018,04,07,00,18,9.80
2018,04,07,00,19,9.80
2018,04,07,00,20,9.70
2018,04,07,00,21,9.70
2018,04,07,00,22,9.70
2018,04,07,00,23,9.70
2018,04,07,00,24,9.70
2018,04,07,00,25,9.70
2018,04,07,00,26,9.70
2018,04,07,00,27,9.70
2018,04,07,00,28,9.70
2018,04,07,00,29,9.70
2018,04,07,00,30,9.60
2018,04,07,00,31,9.60
2018,04,07,00,32,9.60
2018,04,07,00,33,9.60
2018,04,07,00,34,9.60
2018,04,07,00,35,9.60
2018,04,07,00,36,9.60
2018,04,07,00,37,9.60
2018,04,07,00,38,9.60
2018,04,07,00,39,9.60
2018,04,07,00,40,9.50
2018,04,07,00,41,9.50
2018,04,07,00,42,9.50
2018,04,07,00,43,9.50
2018,04,07,00,44,9.50
2018,04,07,00,45,9.50
2018,04,07,00,46,9.50
2018,04,07,00,47,9.50
2018,04,07,00,48,9.50
2018,04,07,00,49,9.50
2018,04,07,00,50,9.40
2018,04,07,00,51,9.40
2018,04,07,00,52,9.40
2018,04,07,00,53,9.40
2018,04,07,00,54,9.40
2018,04,07,00,55,9.40
2018,04,07,00,56,9.30
2018,04,07,00,57,9.30
2018,04,07,00,58,9.30
2018,04,07,00,59,9.30
2018,04,07,01,00,9.30
2018,04,07,01,01,9.30
2018,04,07,01,02,9.30
2018,04,07,01,03,9.20
2018,04,07,01,04,9.20
2018,04,07,01,05,9.20
2018,04,07,01,06,9.20
2018,04,07,01,07,9.20
2018,04,07,01,08,9.10
2018,04,07,01,09,9.10
2018,04,07,01,10,9.10
2018,04,07,01,11,9.10
2018,04,07,01,12,9.00
2018,04,07,01,13,9.00
2018,04,07,01,14,9.00
2018,04,07,01,15,9.00
2018,04,07,01,16,8.90
2018,04,07,01,17,8.90
2018,04,07,01,18,8.90
2018,04,07,01,19,8.90
2018,04,07,01,20,8.80
2018,04,07,01,21,8.80
2018,04,07,01,22,8.80
2018,04,07,01,23,8.80
2018,04,07,01,24,8.80
2018,04,07,01,25,8.80
2018,04,07,01,26,8.70
2018,04,07,01,27,8.70
2018,04,07,01,28,8.70
2018,04,07,01,29,8.70
2018,04,07,01,30,8.70
2018,04,07,01,31,8.70
2018,04,07,01,32,8.70
2018,04,07,01,33,8.60
2018,04,07,01,34,8.60
2018,04,07,01,35,8.60
2018,04,07,01,36,8.60
2018,04,07,01,37,8.60
2018,04,07,01,38,8.60
2018,04,07,01,39,8.70
2018,04,07,01,40,8.70
2018,04,07,01,41,8.70
2018,04,07,01,42,8.70
2018,04,07,01,43,8.70
2018,04,07,01,44,8.70
2018,04,07,01,45,8.60
2018,04,07,01,46,8.70
2018,04,07,01,47,8.60
2018,04,07,01,48,8.60
2018,04,07,01,49,8.60
2018,04,07,01,50,8.60
2018,04,07,01,51,8.60
2018,04,07,01,52,8.60
2018,04,07,01,53,8.60
2018,04,07,01,54,8.60
2018,04,07,01,55,8.60
2018,04,07,01,56,8.60
2018,04,07,01,57,8.60
2018,04,07,01,58,8.60
2018,04,07,01,59,8.60
2018,04,07,02,00,8.60
2018,04,07,02,01,8.60
2018,04,07,02,02,8.60
2018,04,07,02,03,8.60
2018,04,07,02,04,8.60
2018,04,07,02,05,8.60
2018,04,07,02,06,8.60
2018,04,07,02,07,8.60
2018,04,07,02,08,8.60
2018,04,07,02,09,8.60
2018,04,07,02,10,8.60
2018,04,07,02,11,8.60
2018,04,07,02,12,8.70
2018,04,07,02,13,8.70
2018,04,07,02,14,8.70
2018,04,07,02,15,8.70
2018,04,07,02,16,8.70
2018,04,07,02,17,8.70
2018,04,07,02,18,8.70
2018,04,07,02,19,8.70
2018,04,07,02,20,8.70
2018,04,07,02,21,8.70
2018,04,07,02,22,8.70
2018,04,07,02,23,8.70
2018,04,07,02,24,8.70
2018,04,07,02,25,8.70
2018,04,07,02,26,8.70
2018,04,07,02,27,8.70
2018,04,07,02,28,8.80
2018,04,07,02,29,8.80
2018,04,07,02,30,8.80
2018,04,07,02,31,8.80
2018,04,07,02,32,8.80
2018,04,07,02,33,8.80
2018,04,07,02,34,8.80
2018,04,07,02,35,8.80
2018,04,07,02,36,8.80
2018,04,07,02,37,8.80
2018,04,07,02,38,8.80
2018,04,07,02,39,8.80
2018,04,07,02,40,8.80
2018,04,07,02,41,8.80
2018,04,07,02,42,8.80
2018,04,07,02,43,8.90
2018,04,07,02,44,8.90
2018,04,07,02,45,8.90
2018,04,07,02,46,8.90
2018,04,07,02,47,8.90
2018,04,07,02,48,8.90
2018,04,07,02,49,8.90
2018,04,07,02,50,9.00
2018,04,07,02,51,9.00
2018,04,07,02,52,8.90
2018,04,07,02,53,8.90
2018,04,07,02,54,8.90
2018,04,07,02,55,8.90
2018,04,07,02,56,8.90
2018,04,07,02,57,9.00
2018,04,07,02,58,9.00
2018,04,07,02,59,8.90
2018,04,07,03,00,9.00
2018,04,07,03,01,9.00
2018,04,07,03,02,9.00
2018,04,07,03,03,9.00
2018,04,07,03,04,8.90
2018,04,07,03,05,8.90
2018,04,07,03,06,8.90
2018,04,07,03,07,8.90
2018,04,07,03,08,8.90
2018,04,07,03,09,8.90
2018,04,07,03,10,8.90
2018,04,07,03,11,8.90
2018,04,07,03,12,8.90
2018,04,07,03,13,8.90
2018,04,07,03,14,8.90
2018,04,07,03,15,8.90
2018,04,07,03,16,8.90
2018,04,07,03,17,8.90
2018,04,07,03,18,8.90
2018,04,07,03,19,8.90
2018,04,07,03,20,8.90
2018,04,07,03,21,8.90
2018,04,07,03,22,8.90
2018,04,07,03,23,8.90
2018,04,07,03,24,8.90
2018,04,07,03,25,8.90
2018,04,07,03,26,8.90
2018,04,07,03,27,8.90
2018,04,07,03,28,8.90
2018,04,07,03,29,8.90
2018,04,07,03,30,8.90
2018,04,07,03,31,8.90
2018,04,07,03,32,8.90
2018,04,07,03,33,8.90
2018,04,07,03,34,8.90
2018,04,07,03,35,8.90
2018,04,07,03,36,8.90
2018,04,07,03,37,8.90
2018,04,07,03,38,8.90
2018,04,07,03,39,8.90
2018,04,07,03,40,8.90
2018,04,07,03,41,8.90
2018,04,07,03,42,8.90
2018,04,07,03,43,8.90
2018,04,07,03,44,8.90
2018,04,07,03,45,8.90
2018,04,07,03,46,8.90
2018,04,07,03,47,8.90
2018,04,07,03,48,8.90
2018,04,07,03,49,8.90
2018,04,07,03,50,9.00
2018,04,07,03,51,9.00
2018,04,07,03,52,9.00
2018,04,07,03,53,9.00
2018,04,07,03,54,9.00
2018,04,07,03,55,9.00
2018,04,07,03,56,9.00
2018,04,07,03,57,9.00
2018,04,07,03,58,9.00
2018,04,07,03,59,9.00
2018,04,07,04,00,9.00
2018,04,07,04,01,9.00
2018,04,07,04,02,9.00
2018,04,07,04,03,9.00
2018,04,07,04,04,9.00
2018,04,07,04,05,9.10
2018,04,07,04,06,9.10
2018,04,07,04,07,9.10
2018,04,07,04,08,9.10
2018,04,07,04,09,9.10
2018,04,07,04,10,9.10
2018,04,07,04,11,9.10
2018,04,07,04,12,9.10
2018,04,07,04,13,9.10
2018,04,07,04,14,9.10
2018,04,07,04,15,9.10
2018,04,07,04,16,9.10
2018,04,07,04,17,9.10
2018,04,07,04,18,9.10
2018,04,07,04,19,9.10
2018,04,07,04,20,9.10
2018,04,07,04,21,9.10
2018,04,07,04,22,9.10
2018,04,07,04,23,9.10
2018,04,07,04,24,9.10
2018,04,07,04,25,9.10
2018,04,07,04,26,9.10
2018,04,07,04,27,9.10
2018,04,07,04,28,9.10
2018,04,07,04,29,9.10
2018,04,07,04,30,9.10
2018,04,07,04,31,9.10
2018,04,07,04,32,9.10
2018,04,07,04,33,9.10
2018,04,07,04,34,9.10
2018,04,07,04,35,9.10
2018,04,07,04,36,9.10
2018,04,07,04,37,9.10
2018,04,07,04,38,9.00
2018,04,07,04,39,9.00
2018,04,07,04,40,9.00
2018,04,07,04,41,9.00
2018,04,07,04,42,9.00
2018,04,07,04,43,9.00
2018,04,07,04,44,8.90
2018,04,07,04,45,8.90
2018,04,07,04,46,8.90
2018,04,07,04,47,8.90
2018,04,07,04,48,8.90
2018,04,07,04,49,8.90
2018,04,07,04,50,8.90
2018,04,07,04,51,8.90
2018,04,07,04,52,8.90
2018,04,07,04,53,8.90
2018,04,07,04,54,8.90
2018,04,07,04,55,8.90
2018,04,07,04,56,8.90
2018,04,07,04,57,8.90
2018,04,07,04,58,8.90
2018,04,07,04,59,8.90
2018,04,07,05,00,8.90
2018,04,07,05,01,8.90
2018,04,07,05,02,8.90
2018,04,07,05,03,8.90
2018,04,07,05,04,8.90
2018,04,07,05,05,8.90
2018,04,07,05,06,8.90
2018,04,07,05,07,8.90
2018,04,07,05,08,8.90
2018,04,07,05,09,8.90
2018,04,07,05,10,8.90
2018,04,07,05,11,8.90
2018,04,07,05,12,8.90
2018,04,07,05,13,8.90
2018,04,07,05,14,8.80
2018,04,07,05,15,8.80
2018,04,07,05,16,8.80
2018,04,07,05,17,8.80
2018,04,07,05,18,8.80
2018,04,07,05,19,8.80
2018,04,07,05,20,8.80
2018,04,07,05,21,8.80
2018,04,07,05,22,8.80
2018,04,07,05,23,8.80
2018,04,07,05,24,8.80
2018,04,07,08,30,9.90
2018,04,07,08,31,9.90
2018,04,07,08,32,9.90
2018,04,07,08,33,9.90
2018,04,07,08,34,9.90
2018,04,07,08,35,9.90
2018,04,07,08,36,9.90
2018,04,07,08,37,9.90
2018,04,07,08,38,9.90
2018,04,07,08,39,9.90
2018,04,07,08,40,9.90
2018,04,07,08,41,9.90
2018,04,07,08,42,9.90
2018,04,07,08,43,9.90
2018,04,07,08,44,9.90
2018,04,07,08,45,9.90
2018,04,07,08,46,9.90
2018,04,07,08,47,10.00
2018,04,07,08,48,10.00
2018,04,07,08,49,10.00
2018,04,07,08,50,10.00
2018,04,07,08,51,10.00
2018,04,07,08,52,10.00
2018,04,07,08,53,10.00
2018,04,07,08,54,10.00
2018,04,07,08,55,10.00
2018,04,07,08,56,10.10
2018,04,07,08,57,10.10
2018,04,07,08,58,10.10
2018,04,07,08,59,10.10
2018,04,07,09,00,10.10
2018,04,07,09,01,10.10
2018,04,07,09,02,10.10
2018,04,07,09,03,10.10
2018,04,07,09,04,10.10
2018,04,07,09,05,10.10
2018,04,07,09,06,10.10
2018,04,07,09,07,10.10
2018,04,07,09,08,10.10
2018,04,07,09,09,10.10
2018,04,07,09,10,10.10
2018,04,07,09,11,10.20
2018,04,07,09,12,10.10
2018,04,07,09,13,10.20
2018,04,07,09,14,10.20
2018,04,07,09,15,10.20
2018,04,07,09,16,10.20
2018,04,07,09,17,10.20
2018,04,07,09,18,10.20
2018,04,07,09,19,10.20
2018,04,07,09,20,10.20
2018,04,07,09,21,10.20
2018,04,07,09,22,10.20
2018,04,07,09,23,10.20
2018,04,07,09,24,10.20
2018,04,07,09,25,10.20
2018,04,07,09,26,10.20
2018,04,07,09,27,10.20
2018,04,07,09,28,10.20
2018,04,07,09,29,10.20
2018,04,07,09,30,10.20
2018,04,07,09,31,10.20
2018,04,07,09,32,10.20
2018,04,07,09,33,10.20
2018,04,07,09,34,10.20
2018,04,07,09,35,10.20
2018,04,07,09,36,10.20
2018,04,07,09,37,10.20
2018,04,07,09,38,10.20
2018,04,07,09,39,10.20
2018,04,07,09,40,10.20
2018,04,07,09,41,10.20
2018,04,07,09,42,10.20
2018,04,07,09,43,10.20
2018,04,07,09,44,10.20
2018,04,07,09,45,10.20
2018,04,07,09,46,10.20
2018,04,07,09,47,10.30
2018,04,07,09,48,10.30
2018,04,07,09,49,10.30
2018,04,07,09,50,10.30
2018,04,07,09,51,10.30
2018,04,07,09,52,10.30
2018,04,07,09,53,10.40
2018,04,07,09,54,10.40
2018,04,07,09,55,10.40
2018,04,07,09,56,10.50
2018,04,07,09,57,10.50
2018,04,07,09,58,10.50
2018,04,07,09,59,10.50
2018,04,07,10,00,10.60
2018,04,07,10,01,10.60
2018,04,07,10,02,10.60
2018,04,07,10,03,10.70
2018,04,07,10,04,10.70
2018,04,07,10,05,10.80
2018,04,07,10,06,10.80
2018,04,07,10,07,10.90
2018,04,07,10,08,10.90
2018,04,07,10,09,11.00
2018,04,07,10,10,11.10
2018,04,07,10,11,11.10
2018,04,07,10,12,11.20
2018,04,07,10,13,11.20
2018,04,07,10,14,11.30
2018,04,07,10,15,11.40
2018,04,07,10,16,11.40
2018,04,07,10,17,11.50
2018,04,07,10,18,11.60
2018,04,07,10,19,11.70
2018,04,07,10,20,11.80
2018,04,07,10,21,12.00
2018,04,07,10,22,12.10
2018,04,07,10,23,12.20
2018,04,07,10,24,12.30
2018,04,07,10,25,12.40
2018,04,07,10,26,12.50
2018,04,07,10,27,12.60
2018,04,07,10,28,12.70
2018,04,07,10,29,12.80
2018,04,07,10,30,12.90
2018,04,07,10,31,12.90
2018,04,07,10,32,13.00
2018,04,07,10,33,13.10
2018,04,07,10,34,13.20
2018,04,07,10,35,13.20
2018,04,07,10,36,13.30
2018,04,07,10,37,13.40
2018,04,07,10,38,13.50
2018,04,07,10,39,13.60
2018,04,07,10,40,13.70
2018,04,07,10,41,13.80
2018,04,07,10,42,13.80
2018,04,07,10,43,13.90
2018,04,07,10,44,13.90
2018,04,07,10,45,13.90
2018,04,07,10,46,13.90
2018,04,07,10,47,13.90
2018,04,07,10,48,13.90
2018,04,07,10,49,13.80
2018,04,07,10,50,13.80
2018,04,07,10,51,13.70
2018,04,07,10,52,13.70
2018,04,07,10,53,13.70
2018,04,07,10,54,13.70
2018,04,07,10,55,13.70
2018,04,07,10,56,13.70
2018,04,07,10,57,13.70
2018,04,07,10,58,13.70
2018,04,07,10,59,13.80
2018,04,07,11,00,13.80
2018,04,07,11,01,13.80
2018,04,07,11,02,13.90
2018,04,07,11,03,13.90
2018,04,07,11,04,13.90
2018,04,07,11,05,13.90
2018,04,07,11,06,13.90
2018,04,07,11,07,14.00
2018,04,07,11,08,14.10
2018,04,07,11,09,14.10
2018,04,07,11,10,14.20
2018,04,07,11,11,14.30
2018,04,07,11,12,14.40
2018,04,07,11,13,14.50
2018,04,07,11,14,14.60
2018,04,07,11,15,14.60
2018,04,07,11,16,14.70
2018,04,07,11,17,14.70
2018,04,07,11,18,14.80
2018,04,07,11,19,14.80
2018,04,07,11,20,14.80
2018,04,07,11,21,14.80
2018,04,07,11,22,14.80
2018,04,07,11,23,14.70
2018,04,07,11,24,14.70
2018,04,07,11,25,14.70
2018,04,07,11,26,14.70
2018,04,07,11,27,14.70
2018,04,07,11,28,14.70
2018,04,07,11,29,14.70
2018,04,07,11,30,14.70
2018,04,07,11,31,14.70
2018,04,07,11,32,14.60
2018,04,07,11,33,14.50
2018,04,07,11,34,14.40
2018,04,07,11,35,14.30
2018,04,07,11,36,14.20
2018,04,07,11,37,14.10
2018,04,07,11,38,14.00
2018,04,07,11,39,14.00
2018,04,07,11,40,13.90
2018,04,07,11,41,13.90
2018,04,07,11,42,13.80
2018,04,07,11,43,13.70
2018,04,07,11,44,13.70
2018,04,07,11,45,13.60
2018,04,07,11,46,13.60
2018,04,07,11,47,13.60
2018,04,07,11,48,13.50
2018,04,07,11,49,13.40
2018,04,07,11,50,13.30
2018,04,07,11,51,13.20
2018,04,07,11,52,13.10
2018,04,07,11,53,13.00
2018,04,07,11,54,12.90
2018,04,07,11,55,12.80
2018,04,07,11,56,12.70
2018,04,07,11,57,12.60
2018,04,07,11,58,12.60
2018,04,07,11,59,12.60
2018,04,07,12,00,12.60
2018,04,07,12,01,12.70
2018,04,07,12,02,12.70
2018,04,07,12,03,12.70
2018,04,07,12,04,12.80
2018,04,07,12,05,12.90
2018,04,07,12,06,12.90
2018,04,07,12,07,13.00
2018,04,07,12,08,13.10
2018,04,07,12,09,13.20
2018,04,07,12,10,13.30
2018,04,07,12,11,13.40
2018,04,07,12,12,13.40
2018,04,07,12,13,13.50
2018,04,07,12,14,13.50
2018,04,07,12,15,13.50
2018,04,07,12,16,13.60
2018,04,07,12,17,13.60
2018,04,07,12,18,13.60
2018,04,07,12,19,13.60
2018,04,07,12,20,13.70
2018,04,07,12,21,13.70
2018,04,07,12,22,13.80
2018,04,07,12,23,13.90
2018,04,07,12,24,13.90
2018,04,07,12,25,14.00
2018,04,07,12,26,14.10
2018,04,07,12,27,14.20
2018,04,07,12,28,14.30
2018,04,07,12,29,14.30
2018,04,07,12,30,14.40
2018,04,07,12,31,14.40
2018,04,07,12,32,14.40
2018,04,07,12,33,14.40
2018,04,07,12,34,14.40
2018,04,07,12,35,14.30
2018,04,07,12,36,14.30
2018,04,07,12,37,14.20
2018,04,07,12,38,14.10
2018,04,07,12,39,14.10
2018,04,07,12,40,14.00
2018,04,07,12,41,14.00
2018,04,07,12,42,13.90
2018,04,07,12,43,13.80
2018,04,07,12,44,13.70
2018,04,07,12,45,13.70
2018,04,07,12,46,13.60
2018,04,07,12,47,13.60
2018,04,07,12,48,13.60
2018,04,07,12,49,13.60
2018,04,07,12,50,13.50
2018,04,07,12,51,13.50
2018,04,07,12,52,13.50
2018,04,07,12,53,13.40
2018,04,07,12,54,13.40
2018,04,07,12,55,13.40
2018,04,07,12,56,13.30
2018,04,07,12,57,13.30
2018,04,07,12,58,13.30
2018,04,07,12,59,13.30
2018,04,07,13,00,13.30
2018,04,07,13,01,13.30
2018,04,07,13,02,13.30
2018,04,07,13,03,13.20
2018,04,07,13,04,13.20
2018,04,07,13,05,13.10
2018,04,07,13,06,13.10
2018,04,07,13,07,13.00
2018,04,07,13,08,13.00
2018,04,07,13,09,13.00
2018,04,07,13,10,12.90
2018,04,07,13,11,12.90
2018,04,07,13,12,12.80
2018,04,07,13,13,12.80
2018,04,07,13,14,12.80
2018,04,07,13,15,12.70
2018,04,07,13,16,12.60
2018,04,07,13,17,12.50
2018,04,07,13,18,12.50
2018,04,07,13,19,12.40
2018,04,07,13,20,12.30
2018,04,07,13,21,12.30
2018,04,07,13,22,12.20
2018,04,07,13,23,12.20
2018,04,07,13,24,12.10
2018,04,07,13,25,11.90
2018,04,07,13,26,11.80
2018,04,07,13,27,11.70
2018,04,07,13,28,11.60
2018,04,07,13,29,11.50
2018,04,07,13,30,11.50
2018,04,07,13,31,11.40
2018,04,07,13,32,11.40
2018,04,07,13,33,11.30
2018,04,07,13,34,11.30
2018,04,07,13,35,11.30
2018,04,07,13,36,11.20
2018,04,07,13,37,11.20
2018,04,07,13,38,11.20
2018,04,07,13,39,11.20
2018,04,07,13,40,11.20
2018,04,07,13,41,11.20
2018,04,07,13,42,11.30
2018,04,07,13,43,11.20
2018,04,07,13,44,11.20
2018,04,07,13,45,11.20
2018,04,07,13,46,11.20
2018,04,07,13,47,11.30
2018,04,07,13,48,11.20
2018,04,07,13,49,11.20
2018,04,07,13,50,11.20
2018,04,07,13,51,11.20
2018,04,07,13,52,11.20
2018,04,07,13,53,11.20
2018,04,07,13,54,11.20
2018,04,07,13,55,11.20
2018,04,07,13,56,11.20
2018,04,07,13,57,11.30
2018,04,07,13,58,11.30
2018,04,07,13,59,11.20
2018,04,07,14,00,11.20
2018,04,07,14,01,11.30
2018,04,07,14,02,11.30
2018,04,07,14,03,11.30
2018,04,07,14,04,11.30
2018,04,07,14,05,11.30
2018,04,07,14,06,11.30
2018,04,07,14,07,11.30
2018,04,07,14,08,11.30
2018,04,07,14,09,11.40
2018,04,07,14,10,11.40
2018,04,07,14,11,11.40
2018,04,07,14,12,11.50
2018,04,07,14,13,11.40
2018,04,07,14,14,11.40
2018,04,07,14,15,11.40
2018,04,07,14,16,11.40
2018,04,07,14,17,11.40
2018,04,07,14,18,11.40
2018,04,07,14,19,11.40
2018,04,07,14,20,11.40
2018,04,07,14,21,11.40
2018,04,07,14,22,11.40
2018,04,07,14,23,11.40
2018,04,07,14,24,11.40
2018,04,07,14,25,11.40
2018,04,07,14,26,11.30
2018,04,07,14,27,11.30
2018,04,07,14,28,11.30
2018,04,07,14,29,11.20
2018,04,07,14,30,11.20
2018,04,07,14,31,11.20
2018,04,07,14,32,11.20
2018,04,07,14,33,11.20
2018,04,07,14,34,11.20
2018,04,07,14,35,11.20
2018,04,07,14,36,11.20
2018,04,07,14,37,11.20
2018,04,07,14,38,11.30
2018,04,07,14,39,11.30
2018,04,07,14,40,11.30
2018,04,07,14,41,11.30
2018,04,07,14,42,11.30
2018,04,07,14,43,11.20
2018,04,07,14,44,11.20
2018,04,07,14,45,11.20
2018,04,07,14,46,11.20
2018,04,07,14,47,11.20
2018,04,07,14,48,11.20
2018,04,07,14,49,11.20
2018,04,07,14,50,11.10
2018,04,07,14,51,11.10
2018,04,07,14,52,11.10
2018,04,07,14,53,11.10
2018,04,07,14,54,11.10
2018,04,07,14,55,11.00
2018,04,07,14,56,11.00
2018,04,07,14,57,11.00
2018,04,07,14,58,11.00
2018,04,07,14,59,11.00
2018,04,07,15,00,11.00
2018,04,07,15,01,11.00
2018,04,07,15,02,11.00
2018,04,07,15,03,11.00
2018,04,07,15,04,11.00
2018,04,07,15,05,10.90
2018,04,07,15,06,10.90
2018,04,07,15,07,10.90
2018,04,07,15,08,10.90
2018,04,07,15,09,10.90
2018,04,07,15,10,10.90
2018,04,07,15,11,10.90
2018,04,07,15,12,11.00
2018,04,07,15,13,11.00
2018,04,07,15,14,11.00
2018,04,07,15,15,10.90
2018,04,07,15,16,11.00
2018,04,07,15,17,11.00
2018,04,07,15,18,11.00
2018,04,07,15,19,11.10
2018,04,07,15,20,11.10
2018,04,07,15,21,11.10
2018,04,07,15,22,11.10
2018,04,07,15,23,11.20
2018,04,07,15,24,11.20
2018,04,07,15,25,11.20
2018,04,07,15,26,11.20
2018,04,07,15,27,11.20
2018,04,07,15,28,11.20
2018,04,07,15,29,11.20
2018,04,07,15,30,11.20
2018,04,07,15,31,11.10
2018,04,07,15,32,11.10
2018,04,07,15,33,11.10
2018,04,07,15,34,11.00
2018,04,07,15,35,11.00
2018,04,07,15,36,10.90
2018,04,07,15,37,10.90
2018,04,07,15,38,10.90
2018,04,07,15,39,10.80
2018,04,07,15,40,10.80
2018,04,07,15,41,10.80
2018,04,07,15,42,10.70
2018,04,07,15,43,10.70
2018,04,07,15,44,10.60
2018,04,07,15,45,10.60
2018,04,07,15,46,10.60
2018,04,07,15,47,10.60
2018,04,07,15,48,10.60
2018,04,07,15,49,10.50
2018,04,07,15,50,10.50
2018,04,07,15,51,10.60
2018,04,07,15,52,10.60
2018,04,07,15,53,10.50
2018,04,07,15,54,10.50
2018,04,07,15,55,10.60
2018,04,07,15,56,10.60
2018,04,07,15,57,10.60
2018,04,07,15,58,10.60
2018,04,07,15,59,10.70
2018,04,07,16,00,10.70
2018,04,07,16,01,10.60
2018,04,07,16,02,10.60
2018,04,07,16,03,10.60
2018,04,07,16,04,10.60
2018,04,07,16,05,10.60
2018,04,07,16,06,10.60
2018,04,07,16,07,10.60
2018,04,07,16,08,10.50
2018,04,07,16,09,10.50
2018,04,07,16,10,10.50
2018,04,07,16,11,10.40
2018,04,07,16,12,10.40
2018,04,07,16,13,10.40
2018,04,07,16,14,10.40
2018,04,07,16,15,10.40
2018,04,07,16,16,10.40
2018,04,07,16,17,10.40
2018,04,07,16,18,10.40
2018,04,07,16,19,10.40
2018,04,07,16,20,10.40
2018,04,07,16,21,10.40
2018,04,07,16,22,10.40
2018,04,07,16,23,10.40
2018,04,07,16,24,10.40
2018,04,07,16,25,10.30
2018,04,07,16,26,10.20
2018,04,07,16,27,10.20
2018,04,07,16,28,10.10
2018,04,07,16,29,10.10
2018,04,07,16,30,10.10
2018,04,07,16,31,10.00
2018,04,07,16,32,10.00
2018,04,07,16,33,10.00
2018,04,07,16,34,10.00
2018,04,07,16,35,10.00
2018,04,07,16,36,10.00
2018,04,07,16,37,10.00
2018,04,07,16,38,10.10
2018,04,07,16,39,10.10
2018,04,07,16,40,10.10
2018,04,07,16,41,10.20
2018,04,07,16,42,10.20
2018,04,07,16,43,10.20
2018,04,07,16,44,10.30
2018,04,07,16,45,10.30
2018,04,07,16,46,10.30
2018,04,07,16,47,10.30
2018,04,07,16,48,10.40
2018,04,07,16,49,10.40
2018,04,07,16,50,10.40
2018,04,07,16,51,10.40
2018,04,07,16,52,10.40
2018,04,07,16,53,10.40
2018,04,07,16,54,10.30
2018,04,07,16,55,10.30
2018,04,07,16,56,10.30
2018,04,07,16,57,10.30
2018,04,07,16,58,10.30
2018,04,07,16,59,10.20
2018,04,07,17,00,10.20
2018,04,07,17,01,10.20
2018,04,07,17,02,10.20
2018,04,07,17,03,10.20
2018,04,07,17,04,10.20
2018,04,07,17,05,10.20
2018,04,07,17,06,10.20
2018,04,07,17,07,10.20
2018,04,07,17,08,10.20
2018,04,07,17,09,10.20
2018,04,07,17,10,10.20
2018,04,07,17,11,10.20
2018,04,07,17,12,10.20
2018,04,07,17,13,10.20
2018,04,07,17,14,10.10
2018,04,07,17,15,10.10
2018,04,07,17,16,10.10
2018,04,07,17,17,10.10
2018,04,07,17,18,10.10
2018,04,07,17,19,10.10
2018,04,07,17,20,10.10
2018,04,07,17,21,10.10
2018,04,07,17,22,10.10
2018,04,07,17,23,10.10
2018,04,07,17,24,10.10
2018,04,07,17,25,10.10
2018,04,07,17,26,10.10
2018,04,07,17,27,10.20
2018,04,07,17,28,10.20
2018,04,07,17,29,10.20
2018,04,07,17,30,10.20
2018,04,07,17,31,10.20
2018,04,07,17,32,10.20
2018,04,07,17,33,10.20
2018,04,07,17,34,10.20
2018,04,07,17,35,10.20
2018,04,07,17,36,10.20
2018,04,07,17,37,10.20
2018,04,07,17,38,10.20
2018,04,07,17,39,10.20
2018,04,07,17,40,10.20
2018,04,07,17,41,10.10
2018,04,07,17,42,10.10
2018,04,07,17,43,10.10
2018,04,07,17,44,10.10
2018,04,07,17,45,10.10
2018,04,07,17,46,10.10
2018,04,07,17,47,10.10
2018,04,07,17,48,10.10
2018,04,07,17,49,10.10
2018,04,07,17,50,10.10
2018,04,07,17,51,10.10
2018,04,07,17,52,10.10
2018,04,07,17,53,10.10
2018,04,07,17,54,10.10
2018,04,07,17,55,10.10
2018,04,07,17,56,10.20
2018,04,07,17,57,10.20
2018,04,07,17,58,10.20
2018,04,07,17,59,10.20
2018,04,07,18,00,10.20
2018,04,07,18,01,10.10
2018,04,07,18,02,10.10
2018,04,07,18,03,10.10
2018,04,07,18,04,10.10
2018,04,07,18,05,10.10
2018,04,07,18,06,10.00
2018,04,07,18,07,10.00
2018,04,07,18,08,10.00
2018,04,07,18,09,10.00
2018,04,07,18,10,10.00
2018,04,07,18,11,10.00
2018,04,07,18,12,10.10
2018,04,07,18,13,10.00
2018,04,07,18,14,10.00
2018,04,07,18,15,10.00
2018,04,07,18,16,10.00
2018,04,07,18,17,10.00
2018,04,07,18,18,10.00
2018,04,07,18,19,10.00
2018,04,07,18,20,10.00
2018,04,07,18,21,10.00
2018,04,07,18,22,10.00
2018,04,07,18,23,9.90
2018,04,07,18,24,9.90
2018,04,07,18,25,9.90
2018,04,07,18,26,9.90
2018,04,07,18,27,9.90
2018,04,07,18,28,9.90
2018,04,07,18,29,9.90
2018,04,07,18,30,9.90
2018,04,07,18,31,9.90
2018,04,07,18,32,9.90
2018,04,07,18,33,9.90
2018,04,07,18,34,9.80
2018,04,07,18,35,9.80
2018,04,07,18,36,9.80
2018,04,07,18,37,9.80
2018,04,07,18,38,9.80
2018,04,07,18,39,9.80
2018,04,07,18,40,9.80
2018,04,07,18,41,9.80
2018,04,07,18,42,9.80
2018,04,07,18,43,9.80
2018,04,07,18,44,9.80
2018,04,07,18,45,9.80
2018,04,07,18,46,9.80
2018,04,07,18,47,9.80
2018,04,07,18,48,9.80
2018,04,07,18,49,9.80
2018,04,07,18,50,9.70
2018,04,07,18,51,9.70
2018,04,07,18,52,9.70
2018,04,07,18,53,9.70
2018,04,07,18,54,9.70
2018,04,07,18,55,9.70
2018,04,07,18,56,9.70
2018,04,07,18,57,9.70
2018,04,07,18,58,9.60
2018,04,07,18,59,9.60
2018,04,07,19,00,9.60
2018,04,07,19,01,9.60
2018,04,07,19,02,9.60
2018,04,07,19,03,9.60
2018,04,07,19,04,9.60
2018,04,07,19,05,9.60
2018,04,07,19,06,9.60
2018,04,07,19,07,9.60
2018,04,07,19,08,9.60
2018,04,07,19,09,9.60
2018,04,07,19,10,9.60
2018,04,07,19,11,9.60
2018,04,07,19,12,9.60
2018,04,07,19,13,9.60
2018,04,07,19,14,9.60
2018,04,07,19,15,9.60
2018,04,07,19,16,9.60
2018,04,07,19,17,9.60
2018,04,07,19,18,9.60
2018,04,07,19,19,9.60
2018,04,07,19,20,9.60
2018,04,07,19,21,9.60
2018,04,07,19,22,9.60
2018,04,07,19,23,9.60
2018,04,07,19,24,9.60
2018,04,07,19,25,9.60
2018,04,07,19,26,9.60
2018,04,07,19,27,9.60
2018,04,07,19,28,9.50
2018,04,07,19,29,9.50
2018,04,07,19,30,9.50
2018,04,07,19,31,9.50
2018,04,07,19,32,9.50
2018,04,07,19,33,9.50
2018,04,07,19,34,9.50
2018,04,07,19,35,9.50
2018,04,07,19,36,9.50
2018,04,07,19,37,9.50
2018,04,07,19,38,9.50
2018,04,07,19,39,9.50
2018,04,07,19,40,9.40
2018,04,07,19,41,9.40
2018,04,07,19,42,9.40
2018,04,07,19,43,9.40
2018,04,07,19,44,9.50
2018,04,07,19,45,9.50
2018,04,07,19,46,9.50
2018,04,07,19,47,9.50
2018,04,07,19,48,9.50
2018,04,07,19,49,9.50
2018,04,07,19,50,9.50
2018,04,07,19,51,9.50
2018,04,07,19,52,9.50
2018,04,07,19,53,9.50
2018,04,07,19,54,9.50
2018,04,07,19,55,9.50
2018,04,07,19,56,9.50
2018,04,07,19,57,9.60
2018,04,07,19,58,9.60
2018,04,07,19,59,9.60
2018,04,07,20,00,9.60
2018,04,07,20,01,9.60
2018,04,07,20,02,9.60
2018,04,07,20,03,9.60
2018,04,07,20,04,9.60
2018,04,07,20,05,9.60
2018,04,07,20,06,9.60
2018,04,07,20,07,9.60
2018,04,07,20,08,9.60
2018,04,07,20,09,9.60
2018,04,07,20,10,9.60
2018,04,07,20,11,9.60
2018,04,07,20,12,9.50
2018,04,07,20,13,9.50
2018,04,07,20,14,9.50
2018,04,07,20,15,9.50
2018,04,07,20,16,9.50
2018,04,07,20,17,9.50
2018,04,07,20,18,9.50
2018,04,07,20,19,9.50
2018,04,07,20,20,9.50
2018,04,07,20,21,9.40
2018,04,07,20,22,9.40
2018,04,07,20,23,9.40
2018,04,07,20,24,9.40
2018,04,07,20,25,9.40
2018,04,07,20,26,9.40
2018,04,07,20,27,9.40
2018,04,07,20,28,9.40
2018,04,07,20,29,9.40
2018,04,07,20,30,9.40
2018,04,07,20,31,9.40
2018,04,07,20,32,9.40
2018,04,07,20,33,9.40
2018,04,07,20,34,9.40
2018,04,07,20,35,9.40
2018,04,07,20,36,9.40
2018,04,07,20,37,9.40
2018,04,07,20,38,9.40
2018,04,07,20,39,9.40
2018,04,07,20,40,9.40
2018,04,07,20,41,9.40
2018,04,07,20,42,9.40
2018,04,07,20,43,9.40
2018,04,07,20,44,9.40
2018,04,07,20,45,9.40